Flag for U.S.A. Weather past 2 weeks in Victoria, Texas, U.S.A.

Now
81 °F

Clear.


Feels Like: 88 °F
Forecast: 78 / 92 °F
Wind: 10 mph from Southeast

Location: Victoria Regional Airport

Current Time: Oct 1, 2014 at 10:04:34 PM

Latest Report: Oct 1, 2014 at 8:51 PM


Visibility: 10 mi

Pressure: 29.81 "Hg

Humidity: 88%

Dew point: 77 °F

Location of VictoriaLocation

Historic Weather in Victoria — Graph

°F

Victoria temperature yesterday

Maximum temperature yesterday: 88 °F (at 1:51 PM)
Minimum temperature yesterday: 73 °F (at 1:51 AM)
Average temperature yesterday: 79 °F

Past Weeks' High & Low Weather Summary

 TemperatureHumidityPressure
High95 °F (Sep 17, 2:51 PM)100% (Oct 1, 5:51 AM)30.12 "Hg (Oct 1, 5:51 AM)
Low65 °F (Sep 24, 2:51 AM)36% (Sep 23, 1:51 PM)29.76 "Hg (Oct 1, 4:51 PM)
Average79 °F80%29.95 "Hg
* Reported Sep 16 8:51 PM — Oct 1 8:51 PM, Victoria, Weather by CustomWeather, © 2014

Note: Actual official high and low records may vary slightly from our data, if they occured in-between our weather recording intervals... More about our weather records

Advertising

Victoria weather history for previous 24 hours

 ConditionsComfort  
Time TempWeatherWind HumidityBarometerVisibility
8:51 PM
Oct 1
81 °FClear.10 mph88%29.81 "Hg10 mi
7:51 PM83 °FSunny.9 mph79%29.79 "Hg10 mi
6:51 PM85 °FSunny.13 mph72%29.78 "Hg10 mi
5:51 PM89 °FSunny.15 mph63%29.77 "Hg10 mi
4:51 PM91 °FPassing clouds.12 mph57%29.76 "Hg10 mi
3:51 PM92 °FPassing clouds.16 mph56%29.76 "Hg10 mi
2:51 PM91 °FBroken clouds.10 mph60%29.77 "Hg10 mi
1:51 PM91 °FScattered clouds.10 mph60%29.79 "Hg10 mi
12:51 PM89 °FBroken clouds.8 mph63%29.81 "Hg10 mi
11:51 AM88 °FScattered clouds.9 mph67%29.83 "Hg10 mi
10:56 AM85 °FScattered clouds.7 mph72%29.84 "Hg10 mi
9:51 AM83 °FPassing clouds.9 mph82%29.83 "Hg10 mi
8:56 AM79 °FFog.No wind97%29.83 "Hg5 mi
7:58 AM76 °FFog.No wind97%29.82 "Hg3 mi
6:51 AM75 °FFog.No wind100%29.80 "Hg0 mi
5:51 AM75 °FFog.No wind100%29.79 "Hg0 mi
4:51 AM75 °FFog.No wind96%29.79 "Hg0 mi
4:01 AM75 °FFog.No wind96%29.79 "Hg0 mi
2:51 AM75 °FFog.3 mph96%29.79 "Hg0 mi
1:51 AM75 °FFog.3 mph96%29.79 "Hg1 mi
12:51 AM77 °FClear.No wind94%29.79 "Hg7 mi
11:51 PM
Sep 30
76 °FClear.5 mph97%29.79 "Hg8 mi
10:51 PM77 °FClear.5 mph94%29.79 "Hg10 mi
Weather by CustomWeather, © 2014

See weather overviewHow to use our weather pages